Torna al catalogo

COSMOS 480

AttivoMilitarePO
NORAD 5905·PAYLOAD·🇷🇺 Russia

Lanciato Mar 25, 1972 da Plesetsk Cosmodrome

Loading…

Prossimi Passaggi (prossime 24 ore)

TLE

AggiornatoSource: Space-Track

Epoca: Sep 14, 2026, 21:57 UTC

1 05905U 72019A   26257.91526547  .00000011  00000-0 -44946-5 0  9994
2 05905  82.9720 234.0202 0018791 165.6052 222.1909 13.19939734623941

Traccia COSMOS 480 in tempo reale con AllMySat

Download on the App Store